Location: Little Baddow
(51.7333°N, 0.5667°E)
Time: 00:04:02
(UTC+00:00)

ACS3 Solar Sail - Pass Details

Date: 08 November 2025
Orbit: 890 x 1003 km, 97.3° (Epoch: 04 December)

Event Time Altitude Azimuth Distance (km) Brightness Sun altitude
Rises 05:26:17 0° 5° (N) 3,528 4.7 -15.3°
Reaches altitude 10° 05:29:21 10° 348° (NNW) 2,595 3.8 -14.9°
Maximum altitude 05:33:15 19° 305° (NW) 2,029 3.0 -14.3°
Enters shadow 05:34:01 19° 295° (WNW) 2,057 2.9 -14.1°
